This is the latest recevied weather packets stored in our database for station/object N9XRG. If no packets are shown the sender has not sent any weather packets the latest 10 day(s).
| Time | Temp. | Humidity | Pressure | Rain* | Wind** | Luminosity | Snow |
|---|---|---|---|---|---|---|---|
| 1777826423 | 16.67° C | 40% | 1015.2 hPa | 0 mm | - | 696 W/m² | - |
| 1777826119 | 16.67° C | 40% | 1015.1 hPa | 0 mm | - | 668 W/m² | - |
| 1777825817 | 16.11° C | 42% | 1015.2 hPa | 0 mm | - | 673 W/m² | - |
| 1777825514 | 16.67° C | 40% | 1015 hPa | 0 mm | - | 575 W/m² | - |
| 1777825212 | 16.67° C | 40% | 1015.2 hPa | 0 mm | - | 646 W/m² | - |
| 1777824908 | 16.67° C | 41% | 1015.2 hPa | 0 mm | - | 793 W/m² | - |
| 1777824604 | 17.22° C | 41% | 1015.2 hPa | 0 mm | - | 845 W/m² | - |
| 1777824301 | 16.67° C | 41% | 1015.6 hPa | 0 mm | - | 657 W/m² | - |
| 1777823996 | 16.67° C | 39% | 1015.4 hPa | 0 mm | - | 814 W/m² | - |
| 1777823693 | 17.22° C | 38% | 1015.4 hPa | 0 mm | - | 811 W/m² | - |
| 1777823390 | 16.67° C | 40% | 1015.7 hPa | 0 mm | - | 797 W/m² | - |
| 1777823088 | 16.11° C | 41% | 1015.9 hPa | 0 mm | - | 762 W/m² | - |
| 1777822786 | 15.56° C | 40% | 1015.8 hPa | 0 mm | - | 673 W/m² | - |
| 1777822484 | 15.56° C | 41% | 1016 hPa | 0 mm | - | 684 W/m² | - |
| 1777822181 | 16.11° C | 41% | 1016 hPa | 0 mm | - | 662 W/m² | - |
| 1777821878 | 15.56° C | 42% | 1016.2 hPa | 0 mm | - | 724 W/m² | - |
| 1777821575 | 15.56° C | 41% | 1016.1 hPa | 0 mm | - | 673 W/m² | - |
| 1777821274 | 15° C | 46% | 1016.2 hPa | 0 mm | - | 665 W/m² | - |
| 1777820970 | 14.44° C | 43% | 1016.3 hPa | 0 mm | - | 539 W/m² | - |
| 1777820667 | 15° C | 43% | 1016.1 hPa | 0 mm | - | 407 W/m² | - |
| 1777820362 | 15.56° C | 42% | 1016.1 hPa | 0 mm | - | 618 W/m² | - |
| 1777820061 | 15° C | 45% | 1016.1 hPa | 0 mm | - | 650 W/m² | - |
| 1777819757 | 14.44° C | 43% | 1016.1 hPa | 0 mm | - | 613 W/m² | - |
| 1777819456 | 14.44° C | 44% | 1016 hPa | 0 mm | - | 569 W/m² | - |
| 1777819153 | 15° C | 45% | 1016.1 hPa | 0 mm | - | 590 W/m² | - |
* Rain latest hour (hover to see other rain measurements)
** Current wind speed in m/s (hover to see current wind gust speed)